Location: Banff
(51.1667°N, 115.5667°W)
Time: 15:53:45
(UTC+00:00)

Vanguard 1 - Pass Details

Date: 05 December 2020
Orbit: 649 x 3834 km, 34.3° (Epoch: 16 January)

Event Time Altitude Azimuth Distance (km) Brightness Sun altitude
Exits shadow 12:40:57 14° 201° (SSW) 2,318 11.8 -25.4°
Maximum altitude 12:43:47 19° 168° (SSE) 2,306 12.1 -24.9°
Drops below altitude 10° 12:49:06 10° 128° (SE) 3,507 13.7 -24.1°
Sets 12:54:08 0° 113° (ESE) 5,107 15.0 -23.3°
